Other Public Products
Issued by NWS Grand Forks, ND

Home | Current Version | Previous Version | Text Only | Print | Product List | Glossary Off
Versions: 1 2 3 4 5 6 7 8 9 10 11 12 13 14 15 16 17 18 19 20 21 22 23 24 25 26 27 28 29 30 31 32 33 34 35 36 37 38 39 40 41 42 43 44 45 46 47 48 49 50

000
FPUS83 KFGF 020510
OPUFGF
PRAIRIE TO PINES WEATHER ROUNDUP
NATIONAL WEATHER SERVICE EASTERN NORTH DAKOTA/GRAND FORKS ND
1200 AM CDT TUE JUN 02 2015

 **SATELLITE DATA USED TO AUGMENT SKY COVER AT AUTOMATED STATIONS**
 *****  WEATHER ACROSS EASTERN NORTH DAKOTA  *****

CITY           SKY/WX    TMP DP  RH WIND       PRES   REMARKS
GRAND FORKS    CLOUDY    65  47  52 S20G29    29.86F
GRAND FORKS AF DRIZZLE   64  50  59 S15G28    29.86R
GRAND CITY NWS   N/A     64 N/A N/A S10         N/A
BUXTON         NOT AVBL
DEVILS LAKE    CLOUDY    63  57  82 E10       29.87R THUNDER
FARGO          MOCLDY    67  45  45 SE18G31   29.90F
WAHPETON ARPT  MOCLDY    63  43  48 SE17      29.94F
$$

 *****  WEATHER ACROSS CENTRAL AND WESTERN NORTH DAKOTA  *****

CITY           SKY/WX    TMP DP  RH WIND       PRES   REMARKS
JAMESTOWN      CLOUDY    66  58  75 S12       29.84R
BISMARCK       MOCLDY    71  61  70 E7        29.79R
MINOT          CLOUDY    63  58  83 NW6       29.79F
MINOT AFB      CLOUDY    63  63 100 N7        29.79S
GARRISON         N/A     63  58  83 NW7       29.78F
WILLISTON      MOCLDY    67  56  67 NE13      29.81S
DICKINSON      MOCLDY    67  60  78 SE9       29.74F
HETTINGER      MOCLDY    67  60  78 SE9       29.76F
$$

 *****  OTHER OBSERVATIONS NORTHEAST NORTH DAKOTA  *****

CITY           SKY/WX    TMP DP  RH WIND       PRES   REMARKS
WALHALLA       FAIR      59  59 100 MISG      29.85F
LANGDON        FAIR      61  59  94 S17       29.85F
CAVALIER       FAIR      59  54  82 SE9G16    29.86F
GRAFTON        LGT RAIN  61  54  77 CALM      29.93R
CANDO          MOCLDY    63  61  94 SE14      29.82F
FORT TOTTEN      N/A     62  58  88 N12       29.95S
ROLLA          MOCLDY    59  59 100 SE8       29.84F
RUGBY          NOT AVBL
 ***** THE ABOVE OBSERVATIONS ARE NON NWS ARE NOT QUALITY
        CONTROLLED AND MAY MIS-REPORT RAIN FOR SNOW...
$$

 *****  OTHER OBSERVATIONS SOUTHEAST NORTH DAKOTA *****

CITY           SKY/WX    TMP DP  RH WIND       PRES   REMARKS
COOPERSTOWN    NOT AVBL
VALLEY CITY    MOCLDY    66  52  59 S14G24    29.87S
OAKES            N/A     64  55  72 SE15      29.87F
GWINNER        NOT AVBL
SHEYENNE NWR     N/A     65  50  58 SE13      29.95S
BUFFALO        NOT AVBL
WYNDMERE         N/A     66  48  52 SE12        N/A
 ***** THE ABOVE OBSERVATIONS ARE NON NWS ARE NOT QUALITY
       CONTROLLED AND MAY MIS-REPORT RAIN FOR SNOW...
$$

  *****  WEATHER ACROSS NORTHERN MINNESOTA  *****

CITY           SKY/WX    TMP DP  RH WIND       PRES   REMARKS
FLAG ISLAND    NOT AVBL
WARROAD        CLOUDY    61  46  59 S9G17     29.95F
ROSEAU         CLOUDY    63  46  55 S13       29.93F
HALLOCK        LGT RAIN  59  54  82 S13       29.90S
THF RVR FALLS  CLOUDY    63  45  51 SE14      29.93F
HALSTAD        NOT AVBL
FOSSTON        CLOUDY    61  43  51 SE14G22   29.95F
BAUDETTE       MOCLDY    58  37  45 SE10      29.98F
WASKISH        CLOUDY    61  39  44 SE9G18    29.99F
CROOKSTON      CLOUDY    64  45  48 S22       29.90F
$$
  *****  WEATHER ACROSS CENTRAL AND WEST MINNESOTA  *****

CITY           SKY/WX    TMP DP  RH WIND       PRES   REMARKS
BEMIDJI        CLOUDY    57  37  47 SE13      30.01F
PARK RAPIDS    CLOUDY    59  38  45 SE10      30.02F
WADENA         MOCLDY    57  43  58 SE8       30.02F
DETROIT LAKES  MOCLDY    61  45  55 SE14      30.00F
MOORHEAD       MOCLDY    64  45  48 SE15G22   29.92F
FERGUS FALLS   CLEAR     64  45  48 SE18G25   29.97F
ELBOW LAKE     FAIR      63  44  50 SE17      29.99S
MORRIS MN      CLEAR     63  45  51 SE16      29.99S
STAPLES        PTCLDY    61  36  39 SE10      30.04F
WHEATON        CLEAR     61  46  59 SE16      29.97F
$$
  *****  WEATHER ELSEWHERE ACROSS MINNESOTA  *****

CITY           SKY/WX    TMP DP  RH WIND       PRES   REMARKS
DULUTH         MOCLDY    46  29  51 SE8       30.13F
INTRNTL FALLS  CLOUDY    60  38  43 VRB7      30.03F
ELY            CLOUDY    48  28  46 SE7       30.12F
CLOQUET        CLOUDY    43  32  65 E3        30.13F
BRAINERD       CLOUDY    59  40  49 SE10      30.07S
HIBBING        MOCLDY    49  32  52 SE8       30.10F
ALEXANDRIA     CLEAR     60  42  51 SE13      30.04S
SAINT CLOUD    CLEAR     59  41  51 SE9       30.08S
MINNEAPOLIS    CLEAR     59  42  53 SE9       30.11S
$$

  *****  WEATHER ACROSS SOUTH DAKOTA  *****

CITY           SKY/WX    TMP DP  RH WIND       PRES   REMARKS
SIOUX FALLS    CLOUDY    66  50  56 S14       30.01S
BROOKINGS      CLEAR     64  48  55 SE13      30.01R
WATERTOWN      CLEAR     65  49  56 S17       29.96F
HURON          MOCLDY    67  52  58 S16G24    29.91S
SISSETON         N/A     63  52  67 S12       29.93S
ABERDEEN       PTCLDY    67  55  65 S17       29.87F
MITCHELL       CLOUDY    67  53  61 S17       29.95R
PIERRE         CLOUDY    70  61  73 SE12      29.83F
MOBRIDGE       CLOUDY    70  62  76 SE16      29.78F
RAPID CITY     CLOUDY    66  53  63 SE5       29.86R
$$

  *****  SOME WEATHER IN NEARBY STATES *****

CITY           SKY/WX    TMP DP  RH WIND       PRES   REMARKS
GLASGOW MT     MOCLDY    68  40  35 NE23G29   29.81S
GREAT FALLS MT CLOUDY    56  51  84 CALM      29.88R
CHEYENNE WY    MOCLDY    61  48  62 MISG      30.03F
SCOTTSBLUFF NE MOCLDY    61  54  77 SE3       29.96S
OMAHA NE       PTCLDY    64  52  64 S10       30.08S
DES MOINES IA  PTCLDY    59  53  80 S6        30.12S
DAVENPORT IA   CLEAR     57  45  64 E12       30.17S
CHICAGO IL     CLEAR     47  36  65 NE5       30.20F
EAU CLAIRE WI  CLEAR     53  38  56 SE3       30.15S
LA CROSSE WI   CLEAR     55  41  59 E5        30.15F
$$

  *****  SOME NATIONAL WEATHER *****

CITY           SKY/WX    TMP DP  RH WIND       PRES   REMARKS
LA GUARDIA NY  LGT RAIN  51  48  89 NE16      30.15S
RALEIGH NC     MOCLDY    70  67  90 CALM      30.05R
ATLANTA GA     MOCLDY    69  66  90 CALM      30.06R
NEW ORLEANS LA PTCLDY    77  69  76 SW9       30.00F
OKLAHOMA CITY  PTCLDY    67  62  84 S7        30.04F
ALBUQUERQUE NM PTCLDY    72  39  30 SE6       30.11S
SALT LAKE CITY PTCLDY    66  47  50 W5        29.88R
LOS ANGELES CA PTCLDY    61  56  83 W8        30.00R
BOISE ID       PTCLDY    68  45  43 CALM      29.83R
SEATTLE WA     CLOUDY    57  52  83 S7        29.95R
$$

*** WEATHER ACROSS MANITOBA...SASKATCHEWAN AND ONTARIO ***
                ***ONTARIO***

CITY           SKY/WX    TMP DP  RH WIND       PRES   REMARKS
GERALDTON      CLEAR     45  28  53 W3        30.18S
THUNDER BAY    PTCLDY    39  36  87 VRB2      30.18S
SIOUX LOOKOUT  CLOUDY    59  39  47 S9        30.02F
TORONTO        PTCLDY    52  46  82 NW6       30.20S
BIG TROUT LK   LGT RAIN  52  41  66 SE5       29.91F
PICKLE LAKE    NOT AVBL
DRYDEN         CLOUDY    61  41  48 S9        30.01F
KENORA         CLOUDY    63  39  42 S14G20    29.97F
$$
                *** MANITOBA***

CITY           SKY/WX    TMP DP  RH WIND       PRES   REMARKS
BRANDON        PTCLDY    52  50  93 NE3       29.84F
DAUPHIN        CLEAR     64  57  77 SW9       29.80S
ISLAND LAKE    MOCLDY    57  48  72 S13G22    29.76S THUNDER
PILOT MOUND    NOT AVBL
THE PAS        CLEAR     55  43  62 NW15      29.84R
THOMPSON       PTCLDY    48  45  87 W6        29.74R
WINNIPEG       PTCLDY    61  52  72 S21       29.85F
LYNN LAKE      PTCLDY    45  37  76 W8        29.77R
CHURCHILL      PTCLDY    50  48  93 SW12      29.50F
$$
                ***SASKATCHEWAN***

CITY           SKY/WX    TMP DP  RH WIND       PRES   REMARKS
ESTEVAN        PTCLDY    59  54  82 N7        29.87R
KINDERSLEY     PTCLDY    57  46  67 NE10      29.95S
LLOYDMINSTER   CLEAR     46  39  76 N7        30.00R
PRINCE ALBERT  PTCLDY    54  45  71 N12       29.97R
REGINA         MOCLDY    61  46  59 N12       29.92R
YORKTON        CLEAR     57  46  67 NW9       29.89R



USA.gov is the U.S. government's official web portal to all federal, state and local government web resources and services.